Time,TemperatureF,DewpointF,PressureIn,WindDirection,WindDirectionDegrees,WindSpeedMPH,WindSpeedGustMPH,Humidity,HourlyPrecipIn,Conditions,Clouds,dailyrainin,SoftwareType,DateUTC
2013-01-13 00:02:00,64.0,61.0,29.99,ESE,117,6.0,9.0,89,0.00,,,0.00,,2013-01-13 06:02:00,
2013-01-13 00:12:00,64.0,61.0,29.99,ESE,117,6.0,9.0,89,0.00,,,0.00,,2013-01-13 06:12:00,
2013-01-13 00:22:00,65.0,62.0,29.98,ESE,114,7.0,9.0,89,0.00,,,0.00,,2013-01-13 06:22:00,
2013-01-13 00:32:00,65.0,62.0,29.98,ESE,123,8.0,10.0,89,0.00,,,0.00,,2013-01-13 06:32:00,
2013-01-13 00:42:00,65.0,62.0,29.98,ESE,123,8.0,10.0,89,0.00,,,0.00,,2013-01-13 06:42:00,
2013-01-13 00:52:00,65.0,62.0,29.98,ESE,123,8.0,10.0,89,0.00,,,0.00,,2013-01-13 06:52:00,
2013-01-13 01:02:00,64.0,61.0,29.99,SE,128,4.0,5.0,89,0.00,,,0.00,,2013-01-13 07:02:00,
2013-01-13 01:12:00,64.0,61.0,29.99,SE,128,4.0,5.0,89,0.00,,,0.00,,2013-01-13 07:12:00,
2013-01-13 01:22:00,64.0,61.0,29.99,SE,127,3.0,5.0,89,0.00,,,0.00,,2013-01-13 07:22:00,
2013-01-13 01:32:00,64.0,61.0,29.99,SE,130,0.0,5.0,89,0.00,,,0.00,,2013-01-13 07:32:00,
2013-01-13 01:42:00,64.0,61.0,29.99,SE,130,0.0,5.0,89,0.00,,,0.00,,2013-01-13 07:42:00,
2013-01-13 01:52:00,64.0,61.0,29.99,SE,130,0.0,0.0,89,0.00,,,0.00,,2013-01-13 07:52:00,
2013-01-13 02:02:00,64.0,61.0,29.98,ESE,122,2.0,4.0,89,0.00,,,0.00,,2013-01-13 08:02:00,
2013-01-13 02:12:00,64.0,61.0,29.98,ESE,122,2.0,4.0,89,0.00,,,0.00,,2013-01-13 08:12:00,
2013-01-13 02:22:00,65.0,62.0,29.98,ESE,108,3.0,5.0,89,0.00,,,0.00,,2013-01-13 08:22:00,
2013-01-13 02:32:00,65.0,62.0,29.98,ESE,107,5.0,7.0,89,0.00,,,0.00,,2013-01-13 08:32:00,
2013-01-13 02:42:00,65.0,62.0,29.98,ESE,107,5.0,7.0,89,0.00,,,0.00,,2013-01-13 08:42:00,
2013-01-13 02:53:00,65.0,62.0,29.97,ESE,115,6.0,8.0,89,0.00,,,0.00,,2013-01-13 08:53:00,
2013-01-13 03:02:00,65.0,62.0,29.96,ESE,122,6.0,8.0,89,0.00,,,0.00,,2013-01-13 09:02:00,
2013-01-13 03:12:00,65.0,62.0,29.96,ESE,122,5.0,7.0,89,0.00,,,0.00,,2013-01-13 09:12:00,
2013-01-13 03:22:00,65.0,62.0,29.96,ESE,122,5.0,7.0,89,0.00,,,0.00,,2013-01-13 09:22:00,
2013-01-13 03:32:00,65.0,62.0,29.95,ESE,122,6.0,7.0,89,0.00,,,0.00,,2013-01-13 09:32:00,
2013-01-13 03:42:00,65.0,62.0,29.95,ESE,122,6.0,7.0,89,0.00,,,0.00,,2013-01-13 09:42:00,
2013-01-13 03:52:00,64.0,61.0,29.95,ESE,113,7.0,8.0,89,0.00,,,0.00,,2013-01-13 09:52:00,
2013-01-13 04:02:00,64.0,61.0,29.95,ESE,113,8.0,9.0,89,0.00,,,0.00,,2013-01-13 10:02:00,
2013-01-13 04:12:00,64.0,61.0,29.95,ESE,113,8.0,9.0,89,0.00,,,0.00,,2013-01-13 10:12:00,
2013-01-13 04:22:00,64.0,61.0,29.95,ESE,113,8.0,9.0,89,0.00,,,0.00,,2013-01-13 10:22:00,
2013-01-13 04:32:00,64.0,61.0,29.95,ESE,115,8.0,9.0,89,0.00,,,0.00,,2013-01-13 10:32:00,
2013-01-13 04:42:00,64.0,61.0,29.95,ESE,115,8.0,9.0,89,0.00,,,0.00,,2013-01-13 10:42:00,
2013-01-13 04:52:00,64.0,61.0,29.95,ESE,119,8.0,10.0,89,0.00,,,0.00,,2013-01-13 10:52:00,
2013-01-13 05:02:00,64.0,61.0,29.96,ESE,119,6.0,8.0,89,0.00,,,0.00,,2013-01-13 11:02:00,
2013-01-13 05:12:00,64.0,61.0,29.96,ESE,119,6.0,8.0,89,0.00,,,0.00,,2013-01-13 11:12:00,
2013-01-13 05:22:00,64.0,61.0,29.97,ESE,116,6.0,8.0,89,0.00,,,0.00,,2013-01-13 11:22:00,
2013-01-13 05:32:00,64.0,61.0,29.98,ESE,116,5.0,7.0,89,0.00,,,0.00,,2013-01-13 11:32:00,
2013-01-13 05:42:00,64.0,61.0,29.98,ESE,116,5.0,7.0,89,0.00,,,0.00,,2013-01-13 11:42:00,
2013-01-13 05:53:00,65.0,62.0,29.98,ESE,120,8.0,11.0,89,0.00,,,0.00,,2013-01-13 11:53:00,
2013-01-13 06:03:00,65.0,62.0,29.98,ESE,120,10.0,13.0,89,0.00,,,0.00,,2013-01-13 12:03:00,
2013-01-13 06:12:00,65.0,62.0,29.98,ESE,120,10.0,13.0,89,0.00,,,0.00,,2013-01-13 12:12:00,
2013-01-13 06:22:00,65.0,62.0,29.99,ESE,116,9.0,12.0,89,0.00,,,0.00,,2013-01-13 12:22:00,
2013-01-13 06:32:00,64.0,61.0,29.99,ESE,117,7.0,9.0,89,0.00,,,0.00,,2013-01-13 12:32:00,
2013-01-13 06:42:00,64.0,61.0,29.99,ESE,117,7.0,9.0,89,0.00,,,0.00,,2013-01-13 12:42:00,
2013-01-13 06:53:00,64.0,61.0,29.99,ESE,115,8.0,10.0,89,0.00,,,0.00,,2013-01-13 12:53:00,
2013-01-13 07:02:00,64.0,61.0,29.99,ESE,118,9.0,11.0,89,0.00,,,0.00,,2013-01-13 13:02:00,
2013-01-13 07:12:00,64.0,61.0,29.99,ESE,118,9.0,11.0,89,0.00,,,0.00,,2013-01-13 13:12:00,
2013-01-13 07:22:00,65.0,62.0,30.00,ESE,121,8.0,12.0,89,0.00,,,0.00,,2013-01-13 13:22:00,
2013-01-13 07:33:00,65.0,62.0,30.00,SE,138,10.0,13.0,89,0.00,,,0.00,,2013-01-13 13:33:00,
2013-01-13 07:42:00,65.0,62.0,30.00,SE,138,10.0,13.0,89,0.00,,,0.00,,2013-01-13 13:42:00,
2013-01-13 07:53:00,65.0,62.0,30.00,SE,138,10.0,13.0,89,0.00,,,0.00,,2013-01-13 13:53:00,
2013-01-13 08:03:00,65.0,62.0,30.01,SE,134,11.0,13.0,89,0.00,,,0.00,,2013-01-13 14:03:00,
2013-01-13 08:12:00,65.0,62.0,30.01,SE,134,11.0,13.0,89,0.00,,,0.00,,2013-01-13 14:12:00,
2013-01-13 08:22:00,65.0,62.0,30.01,SE,136,11.0,13.0,89,0.00,,,0.00,,2013-01-13 14:22:00,
2013-01-13 08:33:00,65.0,62.0,30.01,SE,136,11.0,13.0,89,0.00,,,0.00,,2013-01-13 14:33:00,
2013-01-13 08:43:00,65.0,62.0,30.01,SE,136,11.0,13.0,89,0.00,,,0.00,,2013-01-13 14:43:00,
2013-01-13 08:52:00,66.0,63.0,30.01,SE,130,12.0,16.0,89,0.00,,,0.00,,2013-01-13 14:52:00,
2013-01-13 09:03:00,66.0,63.0,30.01,SE,131,11.0,15.0,89,0.00,,,0.00,,2013-01-13 15:03:00,
2013-01-13 09:12:00,66.0,63.0,30.01,SE,131,11.0,15.0,89,0.00,,,0.00,,2013-01-13 15:12:00,
2013-01-13 09:22:00,66.0,63.0,30.02,SE,126,10.0,13.0,89,0.00,,,0.00,,2013-01-13 15:22:00,
2013-01-13 09:33:00,66.0,63.0,30.03,SE,126,10.0,12.0,89,0.00,,,0.00,,2013-01-13 15:33:00,
2013-01-13 09:43:00,66.0,63.0,30.03,SE,126,10.0,12.0,89,0.00,,,0.00,,2013-01-13 15:43:00,
2013-01-13 09:52:00,66.0,63.0,30.03,SE,132,11.0,15.0,89,0.00,,,0.00,,2013-01-13 15:52:00,
2013-01-13 10:03:00,66.0,63.0,30.02,SE,125,11.0,14.0,89,0.00,,,0.00,,2013-01-13 16:03:00,
2013-01-13 10:12:00,66.0,63.0,30.02,SE,125,11.0,14.0,89,0.00,,,0.00,,2013-01-13 16:12:00,
2013-01-13 10:23:00,65.0,62.0,30.02,SE,130,10.0,12.0,89,0.00,,,0.00,,2013-01-13 16:23:00,
2013-01-13 10:33:00,66.0,63.0,30.01,SE,130,11.0,13.0,89,0.00,,,0.00,,2013-01-13 16:33:00,
2013-01-13 10:43:00,66.0,63.0,30.01,SE,130,11.0,13.0,89,0.00,,,0.00,,2013-01-13 16:43:00,
2013-01-13 10:52:00,66.0,63.0,30.01,SE,138,9.0,13.0,89,0.00,,,0.00,,2013-01-13 16:52:00,
2013-01-13 11:03:00,66.0,62.0,30.00,SE,132,11.0,14.0,88,0.00,,,0.00,,2013-01-13 17:03:00,
2013-01-13 11:12:00,66.0,62.0,30.00,SE,132,11.0,14.0,88,0.00,,,0.00,,2013-01-13 17:12:00,
2013-01-13 11:22:00,66.0,62.0,30.00,SE,132,11.0,14.0,88,0.00,,,0.00,,2013-01-13 17:22:00,
2013-01-13 11:33:00,66.0,63.0,30.00,SE,139,10.0,13.0,89,0.00,,,0.00,,2013-01-13 17:33:00,
2013-01-13 11:43:00,66.0,63.0,30.00,SE,139,10.0,13.0,89,0.00,,,0.00,,2013-01-13 17:43:00,
2013-01-13 11:53:00,66.0,63.0,30.01,SE,144,9.0,13.0,89,0.00,,,0.00,,2013-01-13 17:53:00,
2013-01-13 12:03:00,66.0,63.0,30.00,SE,136,10.0,12.0,89,0.00,,,0.00,,2013-01-13 18:03:00,
2013-01-13 12:12:00,66.0,63.0,30.00,SE,136,10.0,12.0,89,0.00,,,0.00,,2013-01-13 18:12:00,
2013-01-13 12:23:00,67.0,64.0,30.00,SE,139,9.0,12.0,89,0.00,,,0.00,,2013-01-13 18:23:00,
2013-01-13 12:33:00,67.0,63.0,30.00,SE,138,7.0,10.0,88,0.00,,,0.00,,2013-01-13 18:33:00,
2013-01-13 12:43:00,67.0,63.0,30.00,SE,138,7.0,10.0,88,0.00,,,0.00,,2013-01-13 18:43:00,
2013-01-13 12:53:00,67.0,64.0,29.99,SE,138,6.0,8.0,89,0.00,,,0.00,,2013-01-13 18:53:00,
2013-01-13 13:03:00,67.0,64.0,29.99,SE,138,6.0,8.0,89,0.00,,,0.00,,2013-01-13 19:03:00,
2013-01-13 13:12:00,67.0,64.0,29.99,SE,138,6.0,8.0,89,0.00,,,0.00,,2013-01-13 19:12:00,
2013-01-13 13:22:00,67.0,63.0,29.98,SE,127,7.0,9.0,88,0.00,,,0.00,,2013-01-13 19:22:00,
2013-01-13 13:33:00,67.0,63.0,29.98,SE,131,7.0,8.0,88,0.00,,,0.00,,2013-01-13 19:33:00,
2013-01-13 13:43:00,67.0,63.0,29.98,SE,131,7.0,8.0,88,0.00,,,0.00,,2013-01-13 19:43:00,
2013-01-13 13:52:00,66.0,63.0,29.98,SE,126,7.0,9.0,89,0.00,,,0.00,,2013-01-13 19:52:00,
2013-01-13 14:03:00,67.0,63.0,29.99,SE,132,6.0,9.0,88,0.00,,,0.00,,2013-01-13 20:03:00,
2013-01-13 14:12:00,67.0,63.0,29.99,SE,132,6.0,9.0,88,0.00,,,0.00,,2013-01-13 20:12:00,
2013-01-13 14:22:00,67.0,63.0,29.99,SE,127,5.0,8.0,88,0.00,,,0.00,,2013-01-13 20:22:00,
2013-01-13 14:33:00,66.0,62.0,29.99,ESE,123,4.0,7.0,88,0.00,,,0.00,,2013-01-13 20:33:00,
2013-01-13 14:43:00,66.0,62.0,29.99,ESE,123,4.0,7.0,88,0.00,,,0.00,,2013-01-13 20:43:00,
2013-01-13 14:53:00,66.0,62.0,29.99,ESE,113,5.0,7.0,88,0.00,,,0.00,,2013-01-13 20:53:00,
2013-01-13 15:03:00,67.0,63.0,29.99,ESE,111,6.0,10.0,88,0.00,,,0.00,,2013-01-13 21:03:00,
2013-01-13 15:12:00,67.0,63.0,29.99,ESE,111,6.0,10.0,88,0.00,,,0.00,,2013-01-13 21:12:00,
2013-01-13 15:23:00,67.0,63.0,29.99,ESE,103,5.0,8.0,88,0.00,,,0.00,,2013-01-13 21:23:00,
2013-01-13 15:33:00,67.0,63.0,29.99,ESE,109,6.0,8.0,88,0.00,,,0.00,,2013-01-13 21:33:00,
2013-01-13 15:43:00,67.0,63.0,29.99,ESE,109,6.0,8.0,88,0.00,,,0.00,,2013-01-13 21:43:00,
2013-01-13 15:52:00,67.0,63.0,29.99,ESE,111,6.0,8.0,88,0.00,,,0.00,,2013-01-13 21:52:00,
2013-01-13 16:02:00,67.0,63.0,29.99,ESE,111,6.0,8.0,88,0.00,,,0.00,,2013-01-13 22:02:00,
2013-01-13 16:12:00,67.0,63.0,29.99,ESE,111,6.0,8.0,88,0.00,,,0.00,,2013-01-13 22:12:00,
2013-01-13 16:22:00,67.0,63.0,29.99,ESE,111,6.0,8.0,88,0.00,,,0.00,,2013-01-13 22:22:00,
2013-01-13 16:33:00,66.0,62.0,29.99,ESE,117,8.0,10.0,88,0.00,,,0.00,,2013-01-13 22:33:00,
2013-01-13 16:43:00,66.0,62.0,29.99,ESE,117,8.0,10.0,88,0.00,,,0.00,,2013-01-13 22:43:00,
2013-01-13 16:52:00,66.0,62.0,30.00,ESE,115,8.0,10.0,88,0.00,,,0.00,,2013-01-13 22:52:00,
2013-01-13 17:02:00,66.0,62.0,29.99,ESE,118,8.0,10.0,88,0.00,,,0.00,,2013-01-13 23:02:00,
2013-01-13 17:12:00,66.0,62.0,29.99,ESE,118,8.0,10.0,88,0.00,,,0.00,,2013-01-13 23:12:00,
2013-01-13 17:22:00,66.0,62.0,30.00,ESE,115,7.0,8.0,88,0.00,,,0.00,,2013-01-13 23:22:00,
2013-01-13 17:33:00,66.0,62.0,30.00,ESE,117,7.0,9.0,88,0.00,,,0.00,,2013-01-13 23:33:00,
2013-01-13 17:42:00,66.0,62.0,30.00,ESE,117,7.0,9.0,88,0.00,,,0.00,,2013-01-13 23:42:00,
2013-01-13 17:52:00,66.0,62.0,30.00,ESE,116,7.0,8.0,88,0.00,,,0.00,,2013-01-13 23:52:00,
2013-01-13 18:03:00,66.0,62.0,30.01,SE,130,6.0,9.0,88,0.00,,,0.00,,2013-01-14 00:03:00,
2013-01-13 18:12:00,66.0,62.0,30.01,SE,130,6.0,9.0,88,0.00,,,0.00,,2013-01-14 00:12:00,
2013-01-13 18:22:00,66.0,62.0,30.01,SE,133,7.0,9.0,88,0.00,,,0.00,,2013-01-14 00:22:00,
2013-01-13 18:33:00,66.0,62.0,30.01,SE,135,7.0,10.0,88,0.00,,,0.00,,2013-01-14 00:33:00,
2013-01-13 18:43:00,66.0,62.0,30.01,SE,135,7.0,10.0,88,0.00,,,0.00,,2013-01-14 00:43:00,
2013-01-13 18:52:00,66.0,62.0,30.01,SE,125,7.0,9.0,88,0.00,,,0.00,,2013-01-14 00:52:00,
2013-01-13 19:03:00,66.0,62.0,30.01,SE,141,6.0,8.0,88,0.00,,,0.00,,2013-01-14 01:03:00,
2013-01-13 19:12:00,66.0,62.0,30.01,SE,141,6.0,8.0,88,0.00,,,0.00,,2013-01-14 01:12:00,
2013-01-13 19:22:00,66.0,62.0,30.02,SSE,154,4.0,7.0,88,0.00,,,0.00,,2013-01-14 01:22:00,
2013-01-13 19:32:00,66.0,62.0,30.02,SE,131,5.0,7.0,88,0.00,,,0.00,,2013-01-14 01:32:00,
2013-01-13 19:42:00,66.0,62.0,30.02,SE,131,5.0,7.0,88,0.00,,,0.00,,2013-01-14 01:42:00,
2013-01-13 19:52:00,66.0,62.0,30.02,SE,126,5.0,7.0,88,0.00,,,0.00,,2013-01-14 01:52:00,
2013-01-13 20:02:00,66.0,62.0,30.02,SSW,192,3.0,6.0,88,0.00,,,0.00,,2013-01-14 02:02:00,
2013-01-13 20:12:00,66.0,62.0,30.02,SSW,192,3.0,6.0,88,0.00,,,0.00,,2013-01-14 02:12:00,
2013-01-13 20:22:00,66.0,62.0,30.01,SE,143,6.0,8.0,88,0.00,,,0.00,,2013-01-14 02:22:00,
2013-01-13 20:32:00,66.0,62.0,30.02,SE,144,5.0,7.0,88,0.00,,,0.00,,2013-01-14 02:32:00,
2013-01-13 20:42:00,66.0,62.0,30.02,SE,144,5.0,7.0,88,0.00,,,0.00,,2013-01-14 02:42:00,
2013-01-13 20:53:00,66.0,62.0,30.01,SSE,157,2.0,5.0,88,0.00,,,0.00,,2013-01-14 02:53:00,
2013-01-13 21:02:00,66.0,62.0,30.01,SE,141,8.0,9.0,88,0.00,,,0.00,,2013-01-14 03:02:00,
2013-01-13 21:12:00,66.0,62.0,30.01,SE,141,8.0,9.0,88,0.00,,,0.00,,2013-01-14 03:12:00,
2013-01-13 21:22:00,66.0,62.0,30.01,SE,145,10.0,12.0,88,0.00,,,0.00,,2013-01-14 03:22:00,
2013-01-13 21:32:00,67.0,63.0,30.01,SSE,158,9.0,13.0,88,0.00,,,0.00,,2013-01-14 03:32:00,
2013-01-13 21:42:00,67.0,63.0,30.01,SSE,158,9.0,13.0,88,0.00,,,0.00,,2013-01-14 03:42:00,
2013-01-13 21:52:00,67.0,63.0,30.02,SSE,159,7.0,9.0,88,0.00,,,0.00,,2013-01-14 03:52:00,
2013-01-13 22:02:00,66.0,62.0,30.02,SSE,158,5.0,8.0,88,0.00,,,0.00,,2013-01-14 04:02:00,
2013-01-13 22:12:00,66.0,62.0,30.02,SSE,158,5.0,8.0,88,0.00,,,0.00,,2013-01-14 04:12:00,
2013-01-13 22:22:00,66.0,62.0,30.03,SSE,157,4.0,6.0,88,0.00,,,0.00,,2013-01-14 04:22:00,
2013-01-13 22:32:00,66.0,62.0,30.03,SSE,157,4.0,6.0,88,0.00,,,0.00,,2013-01-14 04:32:00,
2013-01-13 22:42:00,66.0,62.0,30.03,SSE,157,4.0,6.0,88,0.00,,,0.00,,2013-01-14 04:42:00,
2013-01-13 22:52:00,66.0,62.0,30.03,SE,143,2.0,3.0,88,0.00,,,0.00,,2013-01-14 04:52:00,
2013-01-13 23:04:00,66.0,62.0,30.03,SE,143,2.0,3.0,88,0.00,,,0.00,,2013-01-14 05:04:00,
2013-01-13 23:12:00,66.0,62.0,30.03,SE,143,2.0,3.0,88,0.00,,,0.00,,2013-01-14 05:12:00,
2013-01-13 23:22:00,66.0,63.0,30.02,SE,127,6.0,7.0,89,0.00,,,0.00,,2013-01-14 05:22:00,
2013-01-13 23:33:00,66.0,62.0,30.02,ESE,123,7.0,9.0,88,0.00,,,0.00,,2013-01-14 05:33:00,
2013-01-13 23:42:00,66.0,62.0,30.02,ESE,123,7.0,9.0,88,0.00,,,0.00,,2013-01-14 05:42:00,
2013-01-13 23:52:00,66.0,62.0,30.02,SE,124,6.0,9.0,88,0.00,,,0.00,,2013-01-14 05:52:00,